Wichita Falls, TX

8:57 AM CDT on October 19, 2017 (GMT -0500)
Sheppard Air Force Base-Wichita Falls Municipal

Weather History for KSPS - April, 2014

Change the Weather History Date:

Wednesday, April 23, 2014

  Actual Average Record
Temperature  
Mean Temperature 72 °F 65 °F  
Max Temperature 88 °F 78 °F 94 °F (2009)
Min Temperature 56 °F 52 °F 36 °F (2013)
Degree Days  
Heating Degree Days 0 3  
Month to date heating degree days 111 125  
Since 1 July heating degree days 3329 2928  
Cooling Degree Days 7 3  
Month to date cooling degree days 61 46  
Year to date cooling degree days 77 68  
Growing Degree Days 22 (Base 50)    
Moisture  
Dew Point 57 °F    
Average Humidity 61    
Maximum Humidity 86    
Minimum Humidity 36    
Precipitation  
Precipitation 0.07 in 0.11 in 1.70 in (1913)
Month to date precipitation 1.48 1.81  
Year to date precipitation 4.01 6.90  
Snow  
Snow 0.00 in - - ()
Month to date snowfall 0.0  
Snow Depth 0.00 in    
Sea Level Pressure  
Sea Level Pressure 29.76 in    
Wind  
Wind Speed 17 mph (SSE)    
Max Wind Speed 33 mph    
Max Gust Speed 43 mph    
Visibility 10 miles    
Events      
T = Trace of Precipitation, MM = Missing Value Source: NWS Daily Summary

Daily Weather History Graph

Daily Weather History Graph

Search for Another Location

Airport or City:

Trip Planner

Search our weather history database for the weather conditions in past years. The results will help you decide how hot, cold, wet, or windy it might be!

Date:

Astronomy

Apr. 23, 2014 Rise Set
Actual Time 6:53 AM CDT 8:11 PM CDT
Civil Twilight 6:27 AM CDT 8:37 PM CDT
Nautical Twilight 5:56 AM CDT 9:09 PM CDT
Astronomical Twilight 5:23 AM CDT 9:41 PM CDT
Moon 3:09 AM CDT (4/23) 2:37 PM CDT (4/23)
Length of Visible Light 14h 10m
Length of Day
13h 18m
Waning Crescent, 34% of the Moon is Illuminated
Apr 23
Waning Crescent
Apr 29
New
May 6
First Quarter
May 14
Full
May 21
Last Quarter

Hourly Weather History & Observations

Time (CDT) Temp. Heat Index Dew Point Humidity Pressure Visibility Wind Dir Wind Speed Gust Speed Precip Events Conditions
12:52 AM 61.0 °F - 55.0 °F 81% 29.90 in 10.0 mi SE 6.9 mph - N/A   Clear
1:52 AM 60.1 °F - 55.0 °F 83% 29.89 in 10.0 mi SSE 6.9 mph - N/A   Clear
2:52 AM 60.1 °F - 54.0 °F 80% 29.87 in 10.0 mi SSE 10.4 mph - N/A   Clear
3:52 AM 60.1 °F - 53.1 °F 78% 29.86 in 10.0 mi SSE 10.4 mph - N/A   Clear
4:52 AM 57.9 °F - 53.1 °F 84% 29.85 in 10.0 mi SSE 9.2 mph - N/A   Clear
5:52 AM 61.0 °F - 55.0 °F 81% 29.83 in 10.0 mi South 12.7 mph - N/A   Clear
6:52 AM 59.0 °F - 54.0 °F 83% 29.86 in 10.0 mi SSE 8.1 mph - N/A   Clear
7:52 AM 60.1 °F - 55.9 °F 86% 29.87 in 9.0 mi SSE 6.9 mph - N/A   Clear
8:52 AM 66.0 °F - 57.0 °F 73% 29.87 in 10.0 mi South 15.0 mph - N/A   Clear
9:52 AM 71.1 °F - 59.0 °F 66% 29.85 in 10.0 mi South 18.4 mph 25.3 mph N/A   Partly Cloudy
10:52 AM 77.0 °F - 59.0 °F 54% 29.83 in 10.0 mi South 18.4 mph 28.8 mph N/A   Partly Cloudy
11:52 AM 80.1 °F 80.7 °F 59.0 °F 48% 29.81 in 10.0 mi South 15.0 mph 27.6 mph N/A   Partly Cloudy
12:52 PM 82.0 °F 82.4 °F 60.1 °F 47% 29.78 in 10.0 mi South 16.1 mph 26.5 mph N/A   Partly Cloudy
1:52 PM 84.9 °F 84.8 °F 60.1 °F 43% 29.74 in 10.0 mi South 17.3 mph 27.6 mph N/A   Scattered Clouds
2:52 PM 86.0 °F 85.4 °F 59.0 °F 40% 29.72 in 10.0 mi South 17.3 mph 27.6 mph N/A   Scattered Clouds
3:52 PM 87.1 °F 85.9 °F 57.0 °F 36% 29.68 in 10.0 mi SSE 19.6 mph 29.9 mph N/A   Scattered Clouds
4:52 PM 84.9 °F 83.9 °F 57.0 °F 38% 29.63 in 10.0 mi SSE 21.9 mph 27.6 mph N/A   Mostly Cloudy
5:52 PM 84.0 °F 82.9 °F 55.0 °F 37% 29.60 in 10.0 mi SE 21.9 mph 29.9 mph N/A   Mostly Cloudy
6:52 PM 82.0 °F 81.6 °F 55.9 °F 41% 29.60 in 10.0 mi SSE 16.1 mph - N/A   Mostly Cloudy
7:52 PM 80.1 °F 80.2 °F 55.9 °F 43% 29.62 in 10.0 mi SE 17.3 mph - N/A   Mostly Cloudy
8:52 PM 73.9 °F - 60.1 °F 62% 29.64 in 10.0 mi SE 12.7 mph 18.4 mph 0.06 in   Scattered Clouds
9:52 PM 73.0 °F - 59.0 °F 61% 29.61 in 10.0 mi SSE 26.5 mph 35.7 mph N/A   Clear
10:52 PM 73.0 °F - 60.1 °F 64% 29.62 in 10.0 mi SSE 27.6 mph 36.8 mph N/A   Clear
11:52 PM 69.1 °F - 62.1 °F 78% 29.60 in 10.0 mi SSE 28.8 mph 36.8 mph 0.01 in   Mostly Cloudy